www.pogodaiklimat.ru

Погода и климат >> Архив погоды >> Мексика >> Чойс


ПОГОДА в Чойсе

  • Прогноз погоды в Чойсе
  • Монитор погоды в Чойсе

АРХИВ ПОГОДЫ в Чойсе

Время (UTC), дата Ветер
(напр.,м/с)
 
Видим.   Явления Облачность Т
(С)
Тd
(С)
f
(%)
Тe
(С)
Тes
(С)
Комфортность P
(гПа)
Po
(гПа)
Тmin
(С)
Tmax
(С)
R
(мм)
R24
(мм)
S
(см)
03 11.06 штиль 0 5000 м ясно +34.4 +25.7 61 +50 +50 опасность
перегрева
1010.1 984.1
06 11.06 штиль 0 5000 м ясно +30.8 +23.8 66 +42 +42 опасность
перегрева
1010.6 984.5 +42.8
09 11.06 штиль 0 2000 м ясно +27.0 +21.4 71 +34 +34 очень
душно
1010.2 984.0
12 11.06 штиль 0 2000 м ясно +24.8 +20.7 78 +31 +31 очень
душно
1010.8 984.2 +24.6 +42.8
15 11.06 штиль 0 30 км ясно +30.0 +24.9 74 +43 +52 опасность
перегрева
1010.5 983.8
18 11.06 штиль 0 30 км ясно +33.6 +25.7 63 +48 +76 опасность
перегрева
1010.1 983.4 +24.0 +34.0
21 11.06 штиль 0 30 км ясно +43.0 +31.4 53 +72 +97 опасность
перегрева
1007.7 981.2
00 12.06 Ю 2 30 км ясно +40.4 +29.0 53 +63 +67 опасность
перегрева
1005.8 978.9 +24.0 +45.0
03 12.06 штиль 0 2000 м ясно +35.4 +26.0 58 +51 +51 опасность
перегрева
1007.4 981.6
06 12.06 штиль 0 5000 м ясно +31.0 +26.8 78 +48 +48 опасность
перегрева
1010.0 984.1 +45.0
09 12.06 штиль 0 2000 м ясно +28.4 +24.2 78 +40 +40 очень
душно
1010.6 984.5
15 12.06 штиль 0 30 км ясно +34.0 +26.7 66 +51 +60 опасность
перегрева
1009.9 983.3
18 12.06 штиль 0 30 км ясно +41.0 +31.6 60 +72 +100 опасность
перегрева
1009.4 982.9 +24.8 +42.8
21 12.06 С 1 30 км ясно +44.4 +37.0 67 +99 +120 опасность
перегрева
1005.6 979.6
00 13.06 С 1 30 км 4/4 750 м
[Sc diur, vesp]
+41.8 +30.6 54 +69 +72 опасность
перегрева
1003.6 977.9 +24.8 +44.8
03 13.06 С 1 6000 м ясно +35.2 +27.7 65 +55 +55 опасность
перегрева
1005.4 979.9
06 13.06 штиль 0 6000 м ясно +32.0 +25.4 68 +46 +46 опасность
перегрева
1007.1 981.4 +24.8 +44.8
12 13.06 штиль 0 2000 м ясно +26.2 +21.4 75 +33 +33 очень
душно
1008.8 982.4 +26.0 +44.8
15 13.06 штиль 0 30 км ясно +31.0 +23.7 65 +42 +51 опасность
перегрева
1010.6 984.0
18 13.06 штиль 0 30 км ясно +37.4 +27.0 56 +55 +83 опасность
перегрева
1009.4 982.9 +25.0 +37.6
21 13.06 З 1 30 км ясно +42.4 +26.6 41 +57 +79 опасность
перегрева
1007.2 981.0
00 14.06 ЮВ 2 30 км 4/4 600 м
[Cu med, cong]
+40.9 +25.5 42 +54 +57 опасность
перегрева
1005.4 979.5 +25.0 +43.2
03 14.06 З 1 2000 м 8/8 750 м
[Sc diur, vesp]
+34.8 +24.5 55 +47 +47 опасность
перегрева
1008.4 982.6
12 14.06 штиль 0 2000 м ясно +25.7 +20.3 72 +32 +32 очень
душно
1010.7 984.1 +24.1 +43.2
18 14.06 С 1 30 км ясно +36.9 +26.0 54 +52 +76 опасность
перегрева
1011.6 984.9 +24.0 +37.0
00 15.06 ЮЗ 2 30 км ясно +40.8 +27.4 47 +58 +62 опасность
перегрева
1005.7 979.8 +24.0 +42.0
03 15.06 З 2 10 км ясно +33.6 +23.3 55 +44 +44 опасность
перегрева
1005.9 980.2
06 15.06 С 1 10 км ясно +29.1 +21.1 62 +37 +37 очень
душно
1008.3 982.4 +24.0 +42.0
09 15.06 З 1 10 км ясно +27.0 +21.1 70 +34 +34 очень
душно
1007.9 981.8
12 15.06 штиль 0 2000 м ясно +25.4 +20.9 76 +32 +32 очень
душно
1008.5 982.0 +25.0 +42.0
15 15.06 С 2 30 км ясно +29.2 +23.8 73 +40 +47 очень
душно
1010.2 983.4
18 15.06 Ю 2 30 км ясно +37.2 +29.6 65 +62 +82 опасность
перегрева
1009.7 983.0 +23.8 +37.8
21 15.06 З 2 30 км ясно +41.2 +31.0 57 +70 +88 опасность
перегрева
1006.9 980.6
00 16.06 ЮЗ 2 30 км ясно +41.0 +30.8 57 +69 +73 опасность
перегрева
1004.3 978.4 +23.8 +42.2
03 16.06 ЮЗ 2 10 км ясно +34.0 +26.4 65 +51 +51 опасность
перегрева
1005.1 979.4
06 16.06 ЮЗ 2 10 км ясно +30.2 +24.3 71 +42 +42 опасность
перегрева
1006.4 980.6 +23.8 +42.2
09 16.06 С 1 10 км ясно +27.2 +22.9 77 +36 +36 очень
душно
1006.8 980.7
12 16.06 штиль 0 2000 м ясно +24.8 +22.0 84 +32 +32 очень
душно
1007.5 981.1 +24.0 +42.2
15 16.06 З 1 30 км ясно +29.9 +26.5 82 +46 +54 опасность
перегрева
1008.7 982.0
18 16.06 З 2 30 км ясно +36.8 +31.8 76 +71 +91 опасность
перегрева
1008.4 981.8 +23.8 +37.0
21 16.06 С 1 30 км 3/3 600 м
[Cu hum]
+41.8 +32.1 59 +74 +89 опасность
перегрева
1005.6 979.4
00 17.06 С 1 30 км 1/1 600 м
[Cu hum]
+41.0 +31.9 61 +73 +78 опасность
перегрева
1003.9 978.1 +23.8 +43.4
03 17.06 С 1 10 км 3/3 750 м
[Sc diur, vesp]
+34.2 +28.6 73 +57 +57 опасность
перегрева
1005.2 979.5
06 17.06 штиль 0 10 км 3/3 750 м
[Sc diur, vesp]
+30.2 +25.4 76 +44 +44 опасность
перегрева
1007.7 981.9 +43.4
09 17.06 штиль 0 10 км ясно +27.0 +22.9 78 +36 +36 очень
душно
1007.5 981.4
12 17.06 штиль 0 10 км ясно +24.1 +20.7 81 +30 +30 очень
душно
1008.6 982.1 +23.8 +43.4
15 17.06 штиль 0 30 км ясно +28.6 +23.1 72 +38 +47 очень
душно
1010.6 983.9
18 17.06 штиль 0 30 км ясно +37.2 +27.4 57 +56 +83 опасность
перегрева
1009.6 982.9 +22.0 +37.4
21 17.06 С 1 30 км 3/3 600 м
[Cu med, cong]
+41.0 +29.3 52 +64 +79 опасность
перегрева
1007.2 980.8

 

Местоположение метеостанции Чойс (Мексика): широта 26.73 долгота -108.20 высота над уровнем моря 238 м.

В архиве по умолчанию представлена погода в Чойсе за последнюю неделю. Архивные данные за месяц целиком и за предыдущие месяцы, начиная с января 2011 года, Вы можете получить, выбрав интересующий диапазон дат из раскрывающегося списка и нажав кнопку "Ввод!".


*Определитесь, кто Вы:
робот инопланетянин человек

Внимание! Время в таблицах - всемирное. Для получения местного времени необходимо прибавить поправку, которая равна -6 ч.

Смотрите также архив погоды в соседних городах и на ближайших метеорологических станциях:

Погода в Сьюдад-Обрегоне (Мексика) (177 км)
Погода в Кульякане (Мексика) (229 км)
Погода в Темосачи (Мексика) (250 км)
Погода в Паррале (Мексика) (259 км)
Погода в Эмпальме (Мексика) (282 км)
Погода в Тепеуанесе (Мексика) (292 км)
Погода в Гуаймасе (Мексика) (296 км)
Погода в Чихуахуа (Мексика) (303 км)
Погода в Чихуахуа университете (Мексика) (303 км)
Погода в Лорето (Мексика) (319 км)

Пояснения к столбцам:

Ветер - указаны скорость ветра в м/с - средняя за 10 мин, порывы в срок и между сроками (в фигурных скобках) и направление, откуда дует ветер: С - северный, СВ - северо-восточный, В - восточный, ЮВ - юго-восточный, Ю - южный, ЮЗ - юго-западный, З - западный, СЗ - северо-западный.
Видимость - горизонтальная дальность видимости в метрах или километрах. При видимости от 1 до 10 км при отсутствии осадков обычно наблюдается дымка, при ухудшении видимости до 1 км и менее - туман. В сухую погоду видимость может ухудшаться дымом, пылью или мглою.
Явления - указаны атмосферные явления, наблюдавшиеся в срок или в последний час перед сроком; фигурными скобками обозначены явления, наблюдавшиеся между сроками (за 1-3 часа до срока); квадратными скобками обозначены град или гололедные отложения с указанием их диаметра в мм.
Облачность - указаны через наклонную черту общая и нижняя облачность в баллах и высота нижней границы облаков в метрах; квадратными скобками обозначены формы облаков: Ci - перистые, Cs - перисто-слоистые, Cc - перисто-кучевые, Ac - высококучевые, As - высокослоистые, Sc - слоисто-кучевые, Ns - слоисто-дождевые, Cu - кучевые, Cb - кучево-дождевые. Подробнее классификацию облаков см. в Атласе облаков (PDF).
T - Температура воздуха - температура, измеренная на высоте 2 м над землей.
Td - Температура точки росы - температура, при понижении до которой содержащийся в воздухе водяной пар достигнет насыщения.
f - Относительная влажность воздуха - влажноcть воздуха, измеренная на высоте 2 м над землей.
Te - Эффективная температура - температура, которую ощущает одетый по сезону человек в тени. Характеристика душности погоды. При расчете учитывается влияние влажности воздуха и скорости ветра на теплоощущения человека.
Tes - Эффективная температура на солнце - температура, которую ощущает человек, с поправкой на солнечный нагрев. Характеристика знойности погоды. Зависит от высоты солнца над горизонтом, облачности и скорости ветра. Ночью, в пасмурную погоду, а также при ветре 12 м/с и более поправка равна нулю.
P - Атмосферное давление - приведенное к уровню моря атмосферное давление.
Po - Атмосферное давление - измеренное на уровне метеостанции атмосферное давление.
Tmin - Минимальная температура - минимум температуры воздуха на высоте 2 м над землей.
Tmax - Максимальная температура - максимум температуры воздуха на высоте 2 м над землей.
R - Количество осадков - Количество выпавших осадков за период времени, мм. При наведении курсора мыши на число - период времени, за который выпало указанное количество осадков.
R24 - Количество осадков - Количество выпавших осадков за 24 часа, мм.
S - Снежный покров - Высота снежного покрова, см. При наведении курсора мыши на число - состояние снежного покрова и степень покрытия местности в баллах.